Location: Hylvaty SDH
(49.9612°N, 16.4057°E)
Time: 04:13:34
(UTC+01:00)

Tiros 1 despin weight - Pass Details

Date: 20 January 2021
Orbit: 593 x 642 km, 48.2° (Epoch: 24 February)

Event Time Altitude Azimuth Distance (km) Brightness Sun altitude
Rises 18:32:37 0° 267° (W) 2,854 ? -19.4°
Reaches altitude 10° 18:34:56 10° 265° (W) 1,944 ? -19.8°
Maximum altitude 18:39:22 71° 182° (S) 632 ? -20.5°
Enters shadow 18:40:20 52° 118° (ESE) 746 ? -20.7°
